Content
SEND FEEDBACK

Daily
Averages
Monthly
Summary
United States of America

SOUTH LAKE TAHOE, CALIFORNIA


Home > North America > United States > California
Elevation: 6263 feet     Latitude: 38 53N     Longitude: 119 59W

WEATHER
 
SELECT A DAY
Number of Records: 178,892;   Date Range: 1/1/95 - 12/27/14
 
SHARE

PRINT THIS DATA

[ ← Previous Day ]
WEATHER ALMANAC - SEPTEMBER 21, 2013
[ Next Day → ]
[ °C ]   °F
Weather ElementAverageHighLow
Temperature45.1 °F59 °F (9:53 am)37 °F (10:53 pm)
Dewpoint35.5 °F42.1 °F (11:53 am)27 °F (2:53 am)
Humidity71.3 %87 % (5:23 pm)37 % (2:53 am)
Barometer29.81 in29.90 in (12:11 pm)29.71 in (4:53 am)
Wind Speed10.8 mph31.1 mph (9:53 am)
Wind Gust43.7 mph (9:53 am)
Weather ElementAverage
Visibility7.3 mi
Wind DirectionSSE (172.9 °)

Weather ElementTotal
Precipitation1.03 in
Heating Degree Days17 (Base 65)
Averaged from 45 records on September 21, 2013
WEATHER CONDITIONS BREAKOUT
WIND DIRECTION BREAKOUT
WEATHER BY HOUR - SEPTEMBER 21, 2013
[ °C ]   °F
Local TimeTemperatureDewpointHumidityBarometerVisibilityWind DirectionWind SpeedGust SpeedPrecipitationEventsConditions
1:53 AM53.1 °F28.0 °F38 %29.75 in10.0 miSouth (180°)17.3 mph24.2 mphClear
2:53 AM53.1 °F27.0 °F37 %29.73 in10.0 miSouth (180°)18.4 mph25.3 mphClear
3:53 AM52.0 °F28.9 °F41 %29.73 in10.0 miSouth (180°)16.1 mph28.8 mphClear
4:53 AM52.0 °F30.0 °F43 %29.71 in10.0 miSouth (170°)16.1 mph24.2 mphClear
5:53 AM52.0 °F30.0 °F43 %29.72 in10.0 miSouth (180°)18.4 mph32.2 mphClear
6:53 AM52.0 °F32.0 °F47 %29.72 in10.0 miSouth (190°)21.9 mph35.7 mphClear
7:53 AM52.0 °F34.0 °F50 %29.73 in10.0 miSSW (200°)19.6 mph36.8 mphClear
8:53 AM54.0 °F36.0 °F51 %29.73 in10.0 miSouth (190°)20.7 mph35.7 mphClear
9:53 AM59.0 °F34.0 °F39 %29.71 in10.0 miSouth (190°)31.1 mph43.7 mphPartly Cloudy
10:53 AM57.9 °F35.1 °F42 %29.72 in10.0 miSouth (190°)25.3 mph39.1 mph0.00 inRainLight Rain
11:44 AM48.2 °F41.0 °F76 %29.89 in4.0 miSSW (200°)12.7 mph21.9 mph0.03 inRainRain
11:53 AM50.0 °F42.1 °F74 %29.78 in5.0 miSouth (190°)15.0 mph0.03 inRainLight Rain
12:11 PM48.2 °F41.0 °F76 %29.90 in4.0 miSouth (190°)13.8 mph0.02 inRainLight Rain
12:53 PM46.9 °F39.0 °F74 %29.79 in3.0 miSW (220°)9.2 mph0.07 inRainRain
1:01 PM46.4 °F39.2 °F76 %29.90 in1.8 miSSW (210°)10.4 mph18.4 mph0.02 inRainRain
1:12 PM46.4 °F39.2 °F76 %29.90 in1.5 miSouth (190°)13.8 mph26.5 mph0.06 inRainRain
1:25 PM44.6 °F39.2 °F81 %29.89 in2.5 miSouth (180°)11.5 mph27.6 mph0.08 inRainRain
1:33 PM46.4 °F39.2 °F76 %29.88 in5.0 miSouth (170°)4.6 mph0.08 inRainLight Rain
1:45 PM46.4 °F41.0 °F81 %29.86 in10.0 miSSW (200°)6.9 mph0.08 inRainLight Rain
1:53 PM48.9 °F41.0 °F74 %29.73 in10.0 miSouth (180°)10.4 mph0.08 inRainLight Rain
2:18 PM48.2 °F41.0 °F76 %29.84 in3.0 miSouth (190°)10.4 mph19.6 mph0.02 inRainLight Rain
2:27 PM48.2 °F39.2 °F71 %29.85 in10.0 miSSW (210°)12.7 mph23.0 mph0.02 inRainLight Rain
2:53 PM48.9 °F39.9 °F71 %29.72 in10.0 miSSW (210°)10.4 mph21.9 mph0.03 inRainLight Rain
3:45 PM44.6 °F37.4 °F76 %29.85 in4.0 miSouth (190°)10.4 mph24.2 mph0.03 inRainLight Rain
3:53 PM45.0 °F37.9 °F76 %29.75 in10.0 miSouth (190°)10.4 mph0.03 inRainLight Rain
4:14 PM42.8 °F35.6 °F76 %29.88 in4.0 miSSW (200°)5.8 mph0.01 inRainLight Rain
4:31 PM42.8 °F35.6 °F76 %29.87 in2.5 miSouth (180°)8.1 mph0.04 inRainRain
4:40 PM41.0 °F35.6 °F81 %29.86 in5.0 miSSW (200°)5.8 mph0.04 inRainLight Rain
4:53 PM41.0 °F35.1 °F79 %29.76 in8.0 miSSW (200°)6.9 mph0.05 inRainLight Rain
5:00 PM42.8 °F35.6 °F76 %29.86 in10.0 miSSW (200°)9.2 mph0.00 inRainLight Rain
5:11 PM41.0 °F35.6 °F81 %29.86 in6.0 miSSW (200°)11.5 mph0.00 inRainLight Rain
5:23 PM39.2 °F35.6 °F87 %29.86 in4.0 miSouth (190°)11.5 mph0.01 inRainLight Rain
5:46 PM39.2 °F33.8 °F81 %29.85 in7.0 miVariable3.5 mph0.03 inRainLight Rain
5:53 PM39.9 °F34.0 °F79 %29.76 in10.0 miCalm0.03 inRainLight Rain
6:00 PM39.2 °F35.6 °F87 %29.85 in10.0 miCalm0.00 inRainLight Rain
6:23 PM39.2 °F33.8 °F81 %29.88 in3.0 miSouth (190°)9.2 mph0.02 inRainRain
6:45 PM37.4 °F33.8 °F87 %29.88 in4.0 miSouth (190°)9.2 mph0.05 inRainLight Rain
6:53 PM37.9 °F33.1 °F83 %29.80 in5.0 miSouth (190°)8.1 mph0.07 inSnowLight Snow
7:05 PM37.4 °F33.8 °F87 %29.88 in8.0 miSouth (190°)3.5 mph0.00 inRainLight Rain
7:32 PM37.4 °F33.8 °F87 %29.88 in10.0 miSouth (180°)4.6 mph0.00 inOvercast
7:53 PM37.9 °F33.1 °F83 %29.81 in10.0 miSSW (200°)4.6 mph0.00 inRainLight Rain
8:53 PM37.9 °F33.1 °F83 %29.79 in10.0 miVariable3.5 mph0.00 inMostly Cloudy
9:53 PM37.9 °F33.1 °F83 %29.80 in10.0 miSouth (170°)3.5 mphOvercast
10:53 PM37.0 °F32.0 °F82 %29.81 in10.0 miSouth (170°)4.6 mphPartly Cloudy
11:53 PM37.9 °F33.1 °F83 %29.83 in10.0 miSSE (160°)3.5 mphOvercast
Hourly data recorded from KTVL, located miles away from South Lake Tahoe, California







STORIES FROM OUR PARTNERS